Location: Lane
(33.5226°N, 79.8788°W)
Time: 02:54:05
(UTC+00:00)

SR - Pass Details

Date: 26 September 2022
Orbit: 577 x 875 km, 66.7° (Epoch: 29 November)

Event Time Altitude Azimuth Distance (km) Brightness Sun altitude
Rises 12:43:57 0° 338° (NNW) 3,309 ? 18.4°
Reaches altitude 10° 12:46:32 10° 342° (NNW) 2,330 ? 19.0°
Maximum altitude 12:51:45 56° 61° (ENE) 863 ? 20.0°
Drops below altitude 10° 12:56:31 10° 140° (SE) 2,121 ? 21.0°
Sets 12:58:45 0° 144° (SE) 2,986 ? 21.4°
